Погода в Густавии

Сен-Бартелеми     17°53′51″N   62°50′56″W
темп.,
°C
ветер,
м/с
пор.,
м/с
влажн.,
%
обл.,
%
осадки,
мм/ч
давл.,
гПа
погр.,
м
1 марта, пн
пн123:00+25всв910760 0.1 10171032
02:00+25всв1012760 0.6 10151150
05:00+24св1113780 0.9 10141087
08:00+24св1112780 1.3 10161112
11:00+24всв10117567 0.2 10181029
14:00+24св9107556 0.2 10141174
17:00+24св910743 0.1 10141049
20:00+24всв1011735 0.1 10151315
2 марта, вт
вт223:00+24св10117422 0.2 10161168
02:00+24всв10117534 1.0 10141181
05:00+24всв99700 0.3 10141164
08:00+24всв89693 0.3 1016993
11:00+25всв88690 0.0 1017881
14:00+25всв77690 0.0 1015906
17:00+25всв67730 0.0 1014960
20:00+25всв89760 0.3 10161018
3 марта, ср
ср323:00+24всв910750 0.3 10171029
02:00+25в910690 0.3 10161296
05:00+25в910740 0.1 10151168
08:00+25в910740 0.3 10181155
11:00+25в810730 0.0 10181177
14:00+25в89750 0.0 1016984
17:00+25в78750 0.0 10151024
20:00+25в78770 0.2 1016923
4 марта, чт
чт423:00+25вюв897613 0.2 10171024
02:00+25вюв89777 0.3 1016980
05:00+25вюв78780 0.0 1015943
08:00+25вюв78772 0.4 1017988
11:00+25вюв78781 0.0 1018963
14:00+26вюв67761 0.0 1015832
17:00+25вюв77800 0.1 1014749
20:00+25вюв89790 0.1 1015827
5 марта, пт
пт523:00+26вюв810770 0.0 1016867
02:00+25вюв89801 0.0 1014883
05:00+25юв810795 0.2 1013920
08:00+25юв810773 0.2 10151053
11:00+26юв910760 0.0 10161001
14:00+26юв89780 0.0 10141038
17:00+26вюв67792 0.1 1013773
20:00+25вюв78821 0.1 1014769